Location: *
(49.7115°N, 15.0136°E)
Time: 09:50:14
(UTC+00:00)

ARGOS Delta rocket - Pass Details

Date: 27 February 2020
Orbit: 636 x 837 km, 96.5° (Epoch: 03 April)

Event Time Altitude Azimuth Distance (km) Brightness Sun altitude
Exits shadow 19:13:08 32° 204° (SSW) 1,110 4.8 -25.6°
Maximum altitude 19:14:54 52° 262° (W) 809 4.4 -25.8°
Drops below altitude 10° 19:19:20 10° 340° (NNW) 2,090 6.7 -26.5°
Sets 19:21:40 0° 345° (NNW) 3,031 7.6 -26.9°
